Regional Weather Roundup
Issued by NWS

Home | Current Version | Previous Version | Graphics & Text | Print | Product List | Glossary On
Versions: 1 2 3 4 5 6 7 8 9 10 11 12 13 14 15 16 17 18 19 20 21 22 23 24 25 26 27 28 29 30 31 32 33 34 35 36 37 38 39 40 41 42 43 44 45 46 47 48 49 50
000
ASUS43 KFSD 242110
RWRSD

WEATHER ROUNDUP FOR SOUTH DAKOTA
NATIONAL WEATHER SERVICE SIOUX FALLS SD
300 PM CST WED DEC 24 2014

NOTE: "FAIR" INDICATES FEW OR NO CLOUDS BELOW 12,000 FEET WITH NO
SIGNIFICANT WEATHER AND/OR OBSTRUCTIONS TO VISIBILITY.


SDZ001>005-009-010-012>017-242200-
NORTHWEST AND NORTH CENTRAL SOUTH DAKOTA

CITY           SKY/WX    TMP DP  RH WIND       PRES   REMARKS
BUFFALO          N/A     39  27  62 W8        29.42F
FAITH            N/A     32  21  64 S7        29.51F WCI  26
MOBRIDGE       PTSUNNY   29  24  82 E5        29.52F WCI  24
$$

SDZ012>016-024>037-041>051-057-063-072>074-242200-
SOUTHWEST AND SOUTH CENTRAL SOUTH DAKOTA

CITY           SKY/WX    TMP DP  RH WIND       PRES   REMARKS
RAPID CTY ARPT CLOUDY    36  27  69 SE5       29.52F
PIERRE         CLOUDY    28  21  75 S12       29.57F WCI  18
CUSTER         CLOUDY    34  17  50 W10G20    29.53F WCI  26
ELLSWORTH AFB  CLOUDY    37  27  67 S6        29.51F
PHILIP         CLOUDY    36  25  64 SW7       29.55F
PINE RIDGE     PTSUNNY   37  22  54 SW7       29.58F
SPEARFISH      FAIR      39  27  60 CALM      29.50F
WINNER         FAIR      34  22  61 S8        29.62F WCI  27
$$

SDZ004>011-016>023-039-040-242200-
NORTHEAST SOUTH DAKOTA

CITY           SKY/WX    TMP DP  RH WIND       PRES   REMARKS
ABERDEEN       CLOUDY    29  25  85 S12       29.63F WCI  19
WATERTOWN      FOG       25  24  96 SW10      29.62F VSB 1   WCI  15
$$

SDZ017-020-022-023-036>040-048>070-242200-
SOUTHEAST SOUTH DAKOTA

CITY           SKY/WX    TMP DP  RH WIND       PRES   REMARKS
SIOUX FALLS    CLOUDY    26  24  92 W7        29.70F FOG     WCI  18
HURON          CLOUDY    28  24  85 S12       29.67F WCI  18
CHAMBERLAIN    SUNNY     28  23  83 SE7       29.63F WCI  20
MITCHELL       PTSUNNY   30  26  85 SW9       29.70F WCI  22
YANKTON        CLOUDY    28  25  86 SW6       29.73F WCI  22
$$

ABBREVIATIONS USED IN REMARKS
   TC - TEMPERATURE IN CELSIUS
  WCI - WIND CHILL INDEX
   HX - HEAT INDEX
  VSB - VISIBILITY




USA.gov is the U.S. government's official web portal to all federal, state and local government web resources and services.